Location: Dompnac
(44.5644°N, 4.1026°E)
Time: 02:28:31
(UTC+00:00)

USA 234 - Pass Details

Date: 24 January 2021
Orbit: 1100 x 1107 km, 123.0° (Epoch: 01 March)

Event Time Altitude Azimuth Distance (km) Brightness Sun altitude
Exits shadow 21:04:09 23° 311° (NW) 2,170 5.1 -46.2°
Drops below altitude 10° 21:06:17 10° 310° (NW) 2,965 6.0 -46.5°
Sets 21:08:46 0° 310° (NW) 3,926 6.8 -47.0°
